Merweborg — PDBM — position and weather

sailwx.info

Track history (hours):
 
Tides and Currents Weather Stations Pressure Air Temp Water Temp Dewpoint Dewpoint Depression Visibility Wind Speed Wind Dir Waves Ship Positions

Merweborg

Last reported at 2018-Jan-23 15:44 UTC. Time now 2018-Jan-24 01:59 UTC.
Position N 60°25' E 019°02'.

Length 135 m; draft 7 m.

Type: Ship. MMSI: 244860325.

Date/timePositionNaut miles runAvg speedWind from/ knotsBaromVisibWave heightAir tempDewpointWater temp
2018-Jan-23 15:44N 60°25' E 019°02'411.8
2018-Jan-23 15:25N 60°22' E 019°01'511.6
2018-Jan-23 15:00N 60°17' E 019°02'611.3
2018-Jan-23 14:30N 60°12' E 019°06'611.2
2018-Jan-23 14:00N 60°07' E 019°13'611.4
2018-Jan-23 13:30N 60°03' E 019°21'611.5
2018-Jan-23 13:00N 59°58' E 019°28'611.1
2018-Jan-23 12:30N 59°54' E 019°35'510.9
2018-Jan-23 12:00N 59°50' E 019°42'611.1
2018-Jan-23 11:30N 59°45' E 019°49'611.2
2018-Jan-23 10:58N 59°41' E 019°57'24010.7
2018-Jan-22 12:35N 56°04' E 016°45'211.6
2018-Jan-22 12:27N 56°03' E 016°43'511.6
2018-Jan-22 12:00N 56°00' E 016°35'611.5
2018-Jan-22 11:30N 55°57' E 016°26'611.4
2018-Jan-22 11:00N 55°54' E 016°18'611.5
2018-Jan-22 10:30N 55°51' E 016°09'611.5
2018-Jan-22 10:00N 55°49' E 015°60'611.6
2018-Jan-22 09:30N 55°46' E 015°51'611.6
2018-Jan-22 09:00N 55°43' E 015°42'2 3.4
2018-Jan-22 08:30N 55°42' E 015°40'3 6.7
2018-Jan-22 08:00N 55°40' E 015°34'611.6
2018-Jan-22 07:30N 55°37' E 015°26'611.6
2018-Jan-22 07:00N 55°35' E 015°16'611.5
2018-Jan-22 06:30N 55°32' E 015°07'711.4
2018-Jan-22 05:56N 55°29' E 014°57'511.4
2018-Jan-22 05:31N 55°26' E 014°50'711.3
2018-Jan-22 04:51N 55°22' E 014°39'411.4
2018-Jan-22 04:30N 55°19' E 014°34'611.4
2018-Jan-22 04:00N 55°15' E 014°27'611.4
2018-Jan-22 03:30N 55°11' E 014°20'611.6
2018-Jan-22 03:00N 55°07' E 014°14'711.7
2018-Jan-22 02:26N 55°01' E 014°07'5011.5
2018-Jan-21 22:05N 54°45' E 012°44'111.4
2018-Jan-21 21:59N 54°44' E 012°43'511.4
2018-Jan-21 21:30N 54°41' E 012°35'811.5
2018-Jan-21 20:46N 54°37' E 012°23'311.2
2018-Jan-21 20:30N 54°35' E 012°19'611.7
2018-Jan-21 20:00N 54°29' E 012°15'611.3
2018-Jan-21 19:30N 54°24' E 012°10'1411.1
2018-Jan-21 18:12N 54°25' E 011°45'211.4
2018-Jan-21 18:00N 54°26' E 011°41'611.2
2018-Jan-21 17:30N 54°28' E 011°33'510.8
2018-Jan-21 17:00N 54°31' E 011°25'510.9
2018-Jan-21 16:30N 54°33' E 011°16'611.2
2018-Jan-21 16:00N 54°36' E 011°07'611.2
2018-Jan-21 15:29N 54°39' E 010°59'510.8
2018-Jan-21 15:00N 54°42' E 010°52'510.9
2018-Jan-21 14:30N 54°48' E 010°52'510.6
2018-Jan-21 14:00N 54°53' E 010°53'510.4
2018-Jan-21 13:30N 54°58' E 010°58'510.4
2018-Jan-21 13:00N 55°02' E 011°01'611.1
2018-Jan-21 12:30N 55°08' E 011°02'510.5
2018-Jan-21 12:00N 55°13' E 011°06'610.7
2018-Jan-21 11:25N 55°19' E 011°02'106 9.4
2018-Jan-21 00:10N 57°02' E 011°41'210.4
2018-Jan-21 00:00N 57°04' E 011°40'510.3
2018-Jan-20 23:30N 57°08' E 011°36'510.5
2018-Jan-20 23:00N 57°13' E 011°33'511.0
2018-Jan-20 22:30N 57°19' E 011°30'611.1
2018-Jan-20 22:00N 57°24' E 011°26'510.3
2018-Jan-20 21:30N 57°28' E 011°23'5 9.8
2018-Jan-20 21:00N 57°31' E 011°15'5 9.6
2018-Jan-20 20:30N 57°35' E 011°09'5 9.7
2018-Jan-20 20:00N 57°38' E 011°02'510.8
2018-Jan-20 19:30N 57°40' E 010°53'510.6
2018-Jan-20 19:00N 57°41' E 010°43'2 4.7
2018-Jan-20 18:30N 57°42' E 010°39'0 0.0
2018-Jan-20 18:00N 57°42' E 010°39'0 0.0
2018-Jan-20 17:30N 57°42' E 010°39'0 0.0
2018-Jan-20 17:00N 57°42' E 010°39'0 0.0
2018-Jan-20 16:30N 57°42' E 010°39'0 0.0
2018-Jan-20 16:00N 57°42' E 010°39'0 0.0
2018-Jan-20 15:27N 57°42' E 010°39'0 0.0
2018-Jan-20 15:00N 57°42' E 010°39'0 0.0
2018-Jan-20 14:30N 57°42' E 010°39'0 0.0
2018-Jan-20 14:00N 57°42' E 010°39'0 0.0
2018-Jan-20 13:30N 57°42' E 010°39'0 0.0
2018-Jan-20 12:57N 57°42' E 010°39'0 0.0
2018-Jan-20 12:30N 57°42' E 010°39'0 0.0
2018-Jan-20 12:00N 57°42' E 010°39'2 2.9
2018-Jan-20 11:29N 57°43' E 010°41'4 7.4
2018-Jan-20 11:00N 57°45' E 010°45'4 7.5
2018-Jan-20 10:30N 57°47' E 010°39'612.3
2018-Jan-20 09:59N 57°47' E 010°27'31511.2
2018-Jan-19 05:57N 53°36' E 004°49'612.6
2018-Jan-19 05:30N 53°31' E 004°46'612.9
2018-Jan-19 05:00N 53°25' E 004°42'712.9
2018-Jan-19 04:27N 53°18' E 004°37'612.9
2018-Jan-19 04:00N 53°13' E 004°34'812.6
2018-Jan-19 03:21N 53°06' E 004°27'512.2
2018-Jan-19 02:54N 53°01' E 004°23'511.8
2018-Jan-19 02:30N 52°57' E 004°19'10510.7
2018-Jan-18 16:43N 51°38' E 002°27'412.3
2018-Jan-18 16:22N 51°34' E 002°22'513.0
2018-Jan-18 16:00N 51°31' E 002°17'612.9
2018-Jan-18 15:30N 51°25' E 002°12'611.3
2018-Jan-18 15:01N 51°20' E 002°09'5 9.7
2018-Jan-18 14:30N 51°16' E 002°05'713.4
2018-Jan-18 14:00N 51°12' E 001°57'713.2
2018-Jan-18 13:30N 51°07' E 001°49'611.1
2018-Jan-18 13:01N 51°03' E 001°43'611.5
2018-Jan-18 12:30N 50°59' E 001°37'611.8
2018-Jan-18 12:00N 50°55' E 001°30'38 9.9
2018-Jan-18 08:08N 50°29' E 000°45'1410.3
2018-Jan-18 06:46N 50°25' E 000°24'3 8.8
2018-Jan-18 06:27N 50°24' E 000°19'4 8.5
2018-Jan-18 06:00N 50°23' E 000°13'4 8.1
2018-Jan-18 05:31N 50°22' E 000°07'4 7.8
2018-Jan-18 05:01N 50°21' E 000°02'4 7.7
2018-Jan-18 04:31N 50°20' W 000°04'4 7.6
2018-Jan-18 04:00N 50°19' W 000°10'4 7.3
2018-Jan-18 03:30N 50°18' W 000°16'  
Track history (hours):
 
Tides and Currents Weather Stations Pressure Air Temp Water Temp Dewpoint Dewpoint Depression Visibility Wind Speed Wind Dir Waves Ship Positions

Merweborg

Last reported at 2018-Jan-23 15:44 UTC. Time now 2018-Jan-24 01:59 UTC.
Position N 60°25' E 019°02'.

Length 135 m; draft 7 m.

Type: Ship. MMSI: 244860325.

Date/timePositionNaut miles runAvg speedWind from/ knotsBaromVisibWave heightAir tempDewpointWater temp
2018-Jan-23 15:44N 60°25' E 019°02'411.8
2018-Jan-23 15:25N 60°22' E 019°01'511.6
2018-Jan-23 15:00N 60°17' E 019°02'611.3
2018-Jan-23 14:30N 60°12' E 019°06'611.2
2018-Jan-23 14:00N 60°07' E 019°13'611.4
2018-Jan-23 13:30N 60°03' E 019°21'611.5
2018-Jan-23 13:00N 59°58' E 019°28'611.1
2018-Jan-23 12:30N 59°54' E 019°35'510.9
2018-Jan-23 12:00N 59°50' E 019°42'611.1
2018-Jan-23 11:30N 59°45' E 019°49'611.2
2018-Jan-23 10:58N 59°41' E 019°57'24010.7
2018-Jan-22 12:35N 56°04' E 016°45'211.6
2018-Jan-22 12:27N 56°03' E 016°43'511.6
2018-Jan-22 12:00N 56°00' E 016°35'611.5
2018-Jan-22 11:30N 55°57' E 016°26'611.4
2018-Jan-22 11:00N 55°54' E 016°18'611.5
2018-Jan-22 10:30N 55°51' E 016°09'611.5
2018-Jan-22 10:00N 55°49' E 015°60'611.6
2018-Jan-22 09:30N 55°46' E 015°51'611.6
2018-Jan-22 09:00N 55°43' E 015°42'2 3.4
2018-Jan-22 08:30N 55°42' E 015°40'3 6.7
2018-Jan-22 08:00N 55°40' E 015°34'611.6
2018-Jan-22 07:30N 55°37' E 015°26'611.6
2018-Jan-22 07:00N 55°35' E 015°16'611.5
2018-Jan-22 06:30N 55°32' E 015°07'711.4
2018-Jan-22 05:56N 55°29' E 014°57'511.4
2018-Jan-22 05:31N 55°26' E 014°50'711.3
2018-Jan-22 04:51N 55°22' E 014°39'411.4
2018-Jan-22 04:30N 55°19' E 014°34'611.4
2018-Jan-22 04:00N 55°15' E 014°27'611.4
2018-Jan-22 03:30N 55°11' E 014°20'611.6
2018-Jan-22 03:00N 55°07' E 014°14'711.7
2018-Jan-22 02:26N 55°01' E 014°07'5011.5
2018-Jan-21 22:05N 54°45' E 012°44'111.4
2018-Jan-21 21:59N 54°44' E 012°43'511.4
2018-Jan-21 21:30N 54°41' E 012°35'811.5
2018-Jan-21 20:46N 54°37' E 012°23'311.2
2018-Jan-21 20:30N 54°35' E 012°19'611.7
2018-Jan-21 20:00N 54°29' E 012°15'611.3
2018-Jan-21 19:30N 54°24' E 012°10'1411.1
2018-Jan-21 18:12N 54°25' E 011°45'211.4
2018-Jan-21 18:00N 54°26' E 011°41'611.2
2018-Jan-21 17:30N 54°28' E 011°33'510.8
2018-Jan-21 17:00N 54°31' E 011°25'510.9
2018-Jan-21 16:30N 54°33' E 011°16'611.2
2018-Jan-21 16:00N 54°36' E 011°07'611.2
2018-Jan-21 15:29N 54°39' E 010°59'510.8
2018-Jan-21 15:00N 54°42' E 010°52'510.9
2018-Jan-21 14:30N 54°48' E 010°52'510.6
2018-Jan-21 14:00N 54°53' E 010°53'510.4
2018-Jan-21 13:30N 54°58' E 010°58'510.4
2018-Jan-21 13:00N 55°02' E 011°01'611.1
2018-Jan-21 12:30N 55°08' E 011°02'510.5
2018-Jan-21 12:00N 55°13' E 011°06'610.7
2018-Jan-21 11:25N 55°19' E 011°02'106 9.4
2018-Jan-21 00:10N 57°02' E 011°41'210.4
2018-Jan-21 00:00N 57°04' E 011°40'510.3
2018-Jan-20 23:30N 57°08' E 011°36'510.5
2018-Jan-20 23:00N 57°13' E 011°33'511.0
2018-Jan-20 22:30N 57°19' E 011°30'611.1
2018-Jan-20 22:00N 57°24' E 011°26'510.3
2018-Jan-20 21:30N 57°28' E 011°23'5 9.8
2018-Jan-20 21:00N 57°31' E 011°15'5 9.6
2018-Jan-20 20:30N 57°35' E 011°09'5 9.7
2018-Jan-20 20:00N 57°38' E 011°02'510.8
2018-Jan-20 19:30N 57°40' E 010°53'510.6
2018-Jan-20 19:00N 57°41' E 010°43'2 4.7
2018-Jan-20 18:30N 57°42' E 010°39'0 0.0
2018-Jan-20 18:00N 57°42' E 010°39'0 0.0
2018-Jan-20 17:30N 57°42' E 010°39'0 0.0
2018-Jan-20 17:00N 57°42' E 010°39'0 0.0
2018-Jan-20 16:30N 57°42' E 010°39'0 0.0
2018-Jan-20 16:00N 57°42' E 010°39'0 0.0
2018-Jan-20 15:27N 57°42' E 010°39'0 0.0
2018-Jan-20 15:00N 57°42' E 010°39'0 0.0
2018-Jan-20 14:30N 57°42' E 010°39'0 0.0
2018-Jan-20 14:00N 57°42' E 010°39'0 0.0
2018-Jan-20 13:30N 57°42' E 010°39'0 0.0
2018-Jan-20 12:57N 57°42' E 010°39'0 0.0
2018-Jan-20 12:30N 57°42' E 010°39'0 0.0
2018-Jan-20 12:00N 57°42' E 010°39'2 2.9
2018-Jan-20 11:29N 57°43' E 010°41'4 7.4
2018-Jan-20 11:00N 57°45' E 010°45'4 7.5
2018-Jan-20 10:30N 57°47' E 010°39'612.3
2018-Jan-20 09:59N 57°47' E 010°27'31511.2
2018-Jan-19 05:57N 53°36' E 004°49'612.6
2018-Jan-19 05:30N 53°31' E 004°46'612.9
2018-Jan-19 05:00N 53°25' E 004°42'712.9
2018-Jan-19 04:27N 53°18' E 004°37'612.9
2018-Jan-19 04:00N 53°13' E 004°34'812.6
2018-Jan-19 03:21N 53°06' E 004°27'512.2
2018-Jan-19 02:54N 53°01' E 004°23'511.8
2018-Jan-19 02:30N 52°57' E 004°19'10510.7
2018-Jan-18 16:43N 51°38' E 002°27'412.3
2018-Jan-18 16:22N 51°34' E 002°22'513.0
2018-Jan-18 16:00N 51°31' E 002°17'612.9
2018-Jan-18 15:30N 51°25' E 002°12'611.3
2018-Jan-18 15:01N 51°20' E 002°09'5 9.7
2018-Jan-18 14:30N 51°16' E 002°05'713.4
2018-Jan-18 14:00N 51°12' E 001°57'713.2
2018-Jan-18 13:30N 51°07' E 001°49'611.1
2018-Jan-18 13:01N 51°03' E 001°43'611.5
2018-Jan-18 12:30N 50°59' E 001°37'611.8
2018-Jan-18 12:00N 50°55' E 001°30'38 9.9
2018-Jan-18 08:08N 50°29' E 000°45'1410.3
2018-Jan-18 06:46N 50°25' E 000°24'3 8.8
2018-Jan-18 06:27N 50°24' E 000°19'4 8.5
2018-Jan-18 06:00N 50°23' E 000°13'4 8.1
2018-Jan-18 05:31N 50°22' E 000°07'4 7.8
2018-Jan-18 05:01N 50°21' E 000°02'4 7.7
2018-Jan-18 04:31N 50°20' W 000°04'4 7.6
2018-Jan-18 04:00N 50°19' W 000°10'4 7.3
2018-Jan-18 03:30N 50°18' W 000°16'  

Dump ship's entire track history